[[{"header":{"parameterUnit":"m.s-1","parameterCategory":1,"la1":30.2991,"la2":30.254,"lo1":-89.0895,"lo2":-89.0444,"dy":0.0017,"dx":0.0017,"nx":28,"ny":28,"refTime":"2024-02-19T03:00:00:Z","depth":0,"parameterNumber":2,"parameterNumberName":"U-component_of_WINDS"},"data":[0,0,0,0,0,0,0,0,0,0,0,0,0,0,0,0,0,0,0,0,0,0,0,0,0,0,0,0,0,0,0,0,0,0,0,0,0,0,0,0,0,0,0,0,0,0,0,0,0,0,0,0,0,0,0,0,0,0,1.3917,1.3919,0,1.4108,1.411,1.4112,1.4195,1.4194,1.4194,1.4194,1.4389,1.4394,1.44,0,0,0,0,0,0,0,0,0,0,0,0,0,1.3624,1.3629,1.3917,1.3919,1.3922,1.4108,1.411,1.4113,1.4195,1.4194,1.4194,1.4193,1.4387,1.4393,1.44,0,0,0,0,0,0,0,0,0,0,0,0,0,1.3777,1.3631,1.3917,1.3985,1.3993,1.4107,1.411,1.4114,1.4195,1.4194,1.4194,1.4193,1.4385,1.4393,1.4401,1.4461,0,0,1.4426,1.443,0,0,0,0,0,0,0,0,1.3768,1.3787,1.3973,1.3981,1.399,1.4127,1.4079,1.423,1.4195,1.4118,1.4194,1.4193,1.4302,1.4317,1.4354,1.447,1.4479,1.4427,1.4432,1.4435,1.4438,0,0,0,0,0,0,0,1.3757,1.378,1.3993,1.3975,1.3986,1.4006,1.4028,1.4108,1.421,1.4125,1.4131,1.4153,1.4307,1.4346,1.4359,1.4482,1.4427,1.4434,1.4439,1.4442,1.4658,1.4659,0,0,0,0,0,0,1.3735,1.377,1.3987,1.3998,1.3875,1.4012,1.4036,1.4083,1.421,1.4229,1.4153,1.4156,1.4332,1.4349,1.4366,1.4446,1.4435,1.4443,1.4448,1.4657,1.4658,1.4659,0,0,0,0,0,0,1.3729,1.3754,1.3979,1.3886,1.3916,1.4018,1.407,1.4087,1.4127,1.4231,1.425,1.4174,1.4332,1.4355,1.4437,1.4454,1.4447,1.4454,1.4656,1.4658,1.4659,1.4604,0,0,0,0,0,0,1.372,1.3751,1.3775,1.3886,1.3921,1.4046,1.4072,1.4091,1.4141,1.4146,1.4256,1.4273,1.4334,1.4424,1.4445,1.4465,1.4461,1.4655,1.4657,1.4658,1.4605,1.4604,1.4602,0,0,0,0,0,1.3709,1.3752,1.3776,1.3801,1.3953,1.4047,1.4067,1.4135,1.4141,1.4166,1.4234,1.427,1.4448,1.4432,1.4456,1.4479,1.4655,1.4657,1.4658,1.4606,1.4604,1.4602,0,0,0,0,0,0,1.3639,1.3767,1.3795,1.3875,1.3949,1.4061,1.4094,1.4131,1.4205,1.4208,1.4289,1.4313,1.4389,1.4442,1.4422,1.4544,1.4555,1.4561,1.4506,1.4505,1.4504,1.449,1.4468,0,0,0,0,0,1.3633,1.3699,1.3807,1.3867,1.3903,1.3992,1.4036,1.4082,1.4162,1.4194,1.4268,1.4344,1.4418,1.4465,1.4538,1.4613,1.4639,1.4641,1.4639,1.4637,1.4642,1.4687,1.4689,1.4665,1.4665,1.4665,0,0,1.3621,1.3699,1.3736,1.3855,1.3918,1.3985,1.4018,1.4087,1.4137,1.4205,1.4288,1.4344,1.4435,1.4514,1.4553,1.4561,1.4654,1.464,1.4637,1.4644,1.4689,1.4691,1.4693,1.4666,1.4666,1.4666,0,0,1.3633,1.3699,1.3756,1.3819,1.3914,1.3973,1.3987,1.4093,1.4133,1.4217,1.427,1.4331,1.4456,1.4519,1.4567,1.4604,1.464,1.4625,1.4618,1.466,1.4662,1.4664,1.4677,1.4681,1.463,1.463,1.463,0,1.3606,1.3708,1.3781,1.3847,1.3898,1.3963,1.4022,1.4079,1.4194,1.4228,1.4235,1.4394,1.446,1.4555,1.4564,1.4601,1.4619,1.4613,1.4656,1.4659,1.4662,1.4675,1.468,1.4627,1.4628,1.4628,1.4628,0,1.3671,1.3741,1.3776,1.3885,1.394,1.4002,1.4084,1.4131,1.4173,1.4231,1.4316,1.4398,1.4489,1.4515,1.4556,1.4617,1.4619,1.464,1.4652,1.466,1.4675,1.468,1.4624,1.4625,1.4626,1.4626,0,0,1.3644,1.3792,1.3804,1.3855,1.3965,1.4021,1.4086,1.4176,1.4215,1.4291,1.4349,1.4453,1.4474,1.4528,1.4578,1.4615,1.4639,1.4632,1.4635,1.463,1.4711,1.4694,1.4699,1.4664,1.4665,1.4666,1.4704,0,1.3671,1.3791,1.3858,1.395,1.4016,1.4079,1.4136,1.421,1.4266,1.433,1.4393,1.4466,1.4487,1.4521,1.456,1.4627,1.4656,1.4626,1.4718,1.4721,1.4693,1.4707,1.469,1.4721,1.471,1.4711,1.4711,0,1.3719,1.3795,1.3893,1.3997,1.4027,1.4077,1.4165,1.4225,1.4311,1.4349,1.441,1.4459,1.4531,1.4538,1.4638,1.4616,1.4658,1.4697,1.47,1.4711,1.4716,1.4719,1.4732,1.4737,1.4721,1.472,1.4719,0,1.3689,1.3816,1.3892,1.3933,1.4056,1.4089,1.4142,1.4227,1.4277,1.4354,1.4387,1.4471,1.4517,1.4581,1.4652,1.465,1.4745,1.4758,1.4779,1.4778,1.4797,1.4794,1.4817,1.4823,1.4823,1.4823,1.4823,0,1.3713,1.3771,1.3881,1.3927,1.3994,1.4071,1.4135,1.4193,1.4268,1.4327,1.4386,1.444,1.453,1.4596,1.4651,1.4726,1.4747,1.478,1.4794,1.4775,1.477,1.4803,1.4803,1.4824,1.4824,1.4824,1.4823,0,1.3692,1.3767,1.3854,1.3963,1.3992,1.4036,1.413,1.4178,1.4237,1.4311,1.4333,1.4426,1.4506,1.4583,1.469,1.4728,1.4803,1.4821,1.4774,1.4782,1.4799,1.4796,1.4844,1.4854,1.4852,1.4852,1.4852,0,1.3702,1.3748,1.3862,1.3906,1.3957,1.4027,1.4078,1.4156,1.4207,1.4308,1.4343,1.4428,1.45,1.4625,1.4702,1.4785,1.4806,1.4817,1.4819,1.4798,1.4807,1.4803,1.4808,1.4815,1.4815,1.4814,1.4814,0,1.3712,1.3747,1.3819,1.3903,1.3963,1.4033,1.4106,1.4138,1.423,1.4284,1.4367,1.4422,1.4532,1.4616,1.4707,1.4762,1.4804,1.4813,1.4823,1.4803,1.4774,1.479,1.4769,1.4812,1.4812,1.4812,1.4812,1.4812,1.3707,1.3751,1.3838,1.3916,1.3979,1.4045,1.4096,1.4162,1.4232,1.4327,1.4369,1.4452,1.4538,1.4665,1.4719,1.4786,1.4796,1.4809,1.4813,1.4815,1.4811,1.4763,1.4803,1.4803,1.4803,1.4803,1.4804,0,1.3721,1.378,1.3851,1.395,1.4012,1.4045,1.4127,1.4176,1.4249,1.4325,1.4395,1.449,1.4571,1.4655,1.4741,1.4779,1.48,1.4799,1.4797,1.4809,1.4797,1.4781,1.478,1.478,1.478,1.478,1.478,1.478,1.3735,1.3811,1.3857,1.3965,1.4025,1.4107,1.4151,1.4213,1.4274,1.4377,1.4445,1.4499,1.4579,1.4672,1.4748,1.4771,1.48,1.4793,1.4821,1.4808,1.481,1.4811,1.4796,1.4799,1.4799,1.4827,1.4828,1.4828]},{"header":{"parameterUnit":"m.s-1","parameterCategory":1,"la1":30.2991,"la2":30.254,"lo1":-89.0895,"lo2":-89.0444,"dy":0.0017,"dx":0.0017,"nx":28,"ny":28,"refTime":"2024-02-19T03:00:00:Z","depth":0,"parameterNumber":3,"parameterNumberName":"V-component_of_WINDS"},"data":[0,0,0,0,0,0,0,0,0,0,0,0,0,0,0,0,0,0,0,0,0,0,0,0,0,0,0,0,0,0,0,0,0,0,0,0,0,0,0,0,0,0,0,0,0,0,0,0,0,0,0,0,0,0,0,0,0,0,1.726,1.7262,0,1.7416,1.7418,1.7419,1.7464,1.7463,1.7462,1.7462,1.7618,1.7623,1.7628,0,0,0,0,0,0,0,0,0,0,0,0,0,1.6997,1.7002,1.726,1.7262,1.7264,1.7416,1.7418,1.742,1.7464,1.7463,1.7462,1.7461,1.7616,1.7622,1.7628,0,0,0,0,0,0,0,0,0,0,0,0,0,1.7128,1.7003,1.7259,1.7304,1.731,1.7415,1.7418,1.742,1.7464,1.7463,1.7462,1.7461,1.7614,1.7622,1.7629,1.77,0,0,1.7652,1.7655,0,0,0,0,0,0,0,0,1.7121,1.7138,1.7296,1.7301,1.7308,1.7419,1.7383,1.7514,1.7465,1.7406,1.7462,1.746,1.7553,1.7565,1.7597,1.7707,1.7714,1.7652,1.7657,1.766,1.7662,0,0,0,0,0,0,0,1.7111,1.7131,1.7321,1.7298,1.7305,1.7316,1.7333,1.7408,1.7484,1.7411,1.7414,1.7432,1.7556,1.759,1.7601,1.7716,1.7652,1.7659,1.7663,1.7666,1.7893,1.7894,0,0,0,0,0,0,1.7095,1.7123,1.7316,1.7326,1.7209,1.7321,1.7341,1.7385,1.7484,1.7497,1.7433,1.7434,1.7578,1.7592,1.7607,1.7697,1.766,1.7667,1.7671,1.7891,1.7893,1.7895,0,0,0,0,0,0,1.7089,1.7112,1.731,1.7226,1.7252,1.7327,1.7376,1.7388,1.7423,1.7501,1.7514,1.7454,1.7577,1.7596,1.7677,1.7703,1.767,1.7677,1.7889,1.7892,1.7894,1.7877,0,0,0,0,0,0,1.7082,1.711,1.7138,1.7226,1.7256,1.7379,1.7378,1.7392,1.7436,1.7438,1.7524,1.7537,1.7578,1.7665,1.7684,1.7713,1.7683,1.7887,1.7891,1.7893,1.7876,1.7879,1.7881,0,0,0,0,0,1.7072,1.7126,1.7139,1.7162,1.7294,1.738,1.7397,1.7444,1.7438,1.7467,1.7517,1.7534,1.7697,1.7673,1.7695,1.7726,1.7886,1.789,1.7893,1.7875,1.7878,1.7881,0,0,0,0,0,0,1.7038,1.7139,1.7154,1.7239,1.7301,1.7387,1.7425,1.7446,1.751,1.751,1.7564,1.7583,1.766,1.7701,1.7673,1.78,1.7792,1.78,1.777,1.7774,1.7777,1.7766,1.7689,0,0,0,0,0,1.7041,1.7104,1.7188,1.7254,1.7284,1.7349,1.7389,1.742,1.7485,1.7512,1.7568,1.763,1.7695,1.7737,1.7801,1.7882,1.7901,1.7914,1.7916,1.7918,1.7924,1.797,1.7977,1.7907,1.7907,1.7906,0,0,1.7046,1.7109,1.7145,1.7249,1.73,1.7364,1.7371,1.7437,1.7485,1.7521,1.7602,1.7644,1.7717,1.7798,1.7837,1.7835,1.7948,1.7923,1.7923,1.7929,1.7975,1.7981,1.7987,1.7909,1.7909,1.7908,0,0,1.7089,1.7142,1.7204,1.7256,1.7335,1.7378,1.7392,1.7476,1.7507,1.7588,1.7617,1.7673,1.7784,1.7835,1.7876,1.7938,1.7956,1.7957,1.7971,1.8015,1.8021,1.8026,1.8048,1.8056,1.7963,1.7963,1.7963,0,1.7085,1.7183,1.7233,1.7298,1.7343,1.738,1.7443,1.749,1.7585,1.7614,1.7611,1.7752,1.7804,1.7897,1.7912,1.7944,1.7962,1.7948,1.8016,1.8022,1.8027,1.8049,1.8058,1.7963,1.7963,1.7963,1.7963,0,1.7175,1.7242,1.7282,1.7375,1.7424,1.7487,1.7546,1.7589,1.7615,1.7658,1.774,1.7804,1.7882,1.7906,1.7932,1.8004,1.8,1.8006,1.7999,1.8033,1.8054,1.8063,1.7962,1.7962,1.7962,1.7962,0,0,1.7201,1.732,1.7334,1.7377,1.7466,1.7519,1.7583,1.7661,1.7697,1.7761,1.7816,1.791,1.7916,1.7962,1.7993,1.8032,1.8077,1.8033,1.8036,1.804,1.816,1.8156,1.8165,1.809,1.8092,1.8093,1.8154,0,1.7255,1.7374,1.7421,1.7517,1.7579,1.7616,1.7672,1.7732,1.7774,1.7832,1.7878,1.7943,1.7946,1.7974,1.8014,1.8063,1.8102,1.806,1.8142,1.8144,1.8123,1.8176,1.8172,1.8226,1.8163,1.8164,1.8165,0,1.7334,1.7401,1.7503,1.7586,1.7614,1.7664,1.7739,1.7794,1.7863,1.7891,1.7942,1.7972,1.804,1.8028,1.8123,1.8093,1.8129,1.8158,1.8161,1.8171,1.8157,1.8187,1.8245,1.8253,1.8179,1.8178,1.8177,0,1.7343,1.7458,1.7535,1.757,1.7668,1.7702,1.7744,1.7812,1.7856,1.792,1.7949,1.8021,1.806,1.8114,1.8162,1.8149,1.8252,1.8244,1.8276,1.8275,1.8297,1.8295,1.8361,1.8319,1.8319,1.8318,1.8318,0,1.7399,1.7461,1.754,1.7587,1.7657,1.771,1.7777,1.7821,1.7881,1.7937,1.7972,1.8023,1.8083,1.8142,1.8179,1.8252,1.8269,1.8293,1.8302,1.829,1.8287,1.8315,1.8312,1.8321,1.832,1.832,1.8319,0,1.7421,1.7477,1.7563,1.7649,1.7672,1.772,1.7793,1.7839,1.7882,1.7952,1.7972,1.8039,1.811,1.8163,1.8254,1.828,1.8357,1.8367,1.8334,1.8339,1.8369,1.8365,1.8455,1.847,1.8417,1.8418,1.8418,0,1.7454,1.7502,1.7594,1.7634,1.7677,1.7741,1.7786,1.784,1.7885,1.7967,1.8004,1.8077,1.8139,1.825,1.8307,1.8377,1.8388,1.8415,1.8399,1.8385,1.8389,1.8386,1.8391,1.8417,1.8417,1.8418,1.8418,0,1.7505,1.7531,1.7595,1.767,1.7723,1.7784,1.7845,1.7875,1.794,1.7988,1.8062,1.811,1.8204,1.8276,1.8352,1.8394,1.8417,1.8422,1.8434,1.8422,1.8402,1.8414,1.8341,1.842,1.842,1.842,1.842,1.8419,1.7534,1.7579,1.7651,1.7722,1.7773,1.783,1.7878,1.7928,1.7991,1.8073,1.81,1.8176,1.8243,1.8347,1.839,1.8449,1.8449,1.8465,1.847,1.8473,1.8472,1.8392,1.8463,1.8463,1.8463,1.8463,1.8463,0,1.7588,1.7636,1.7701,1.7786,1.7841,1.7859,1.7927,1.7972,1.8039,1.8101,1.8161,1.8246,1.8316,1.8378,1.8451,1.8487,1.8499,1.8504,1.8502,1.8512,1.8468,1.8451,1.8493,1.8493,1.8493,1.8493,1.8493,1.8493,1.7623,1.77,1.7734,1.7837,1.7884,1.796,1.7998,1.805,1.8099,1.8193,1.8252,1.8293,1.8354,1.8432,1.8497,1.8513,1.8539,1.8542,1.856,1.8518,1.8515,1.8511,1.8496,1.8546,1.8547,1.8599,1.86,1.86]}]]